User: anonymous   Login
Location: Unspecified
(0.0000°N, 0.0000°E)
Time: 23:58:26
(UTC+00:00)
Language:

OBJECT U - Orbit

View from above orbital plane
View from above orbital plane
View from above satellite
View from above satellite

Ground track
Ground track

The orbit is defined by the following mean orbital elements,

1 63228U          26145.43540515 +.00000000 +00000-0 +22930-3 0 00008
2 63228  97.3950  38.5322 0003830 211.4419 148.6589 15.23301260    09
Epoch (UTC): 25 May 2026 10:26:59
Eccentricity: 0.0003830
inclination: 97.3950°
perigee height: 493 km
apogee height: 499 km
right ascension of ascending node: 38.5322°
argument of perigee: 211.4419°
revolutions per day: 15.23301260
mean anomaly at epoch: 148.6589°

The dashed part of the orbit path shows where the satellite is in the earth's shadow,  

DLR